Year,Month,Day,Hour,Minute,Value (Times are PST for temperature in C)
2017,05,22,00,00,14.20
2017,05,22,00,01,14.20
2017,05,22,00,02,14.20
2017,05,22,00,03,14.20
2017,05,22,00,04,14.20
2017,05,22,00,05,14.20
2017,05,22,00,06,14.20
2017,05,22,00,07,14.20
2017,05,22,00,08,14.20
2017,05,22,00,09,14.20
2017,05,22,00,10,14.10
2017,05,22,00,11,14.10
2017,05,22,00,12,14.10
2017,05,22,00,13,14.10
2017,05,22,00,14,14.10
2017,05,22,00,15,14.10
2017,05,22,00,16,14.10
2017,05,22,00,17,14.10
2017,05,22,00,18,14.10
2017,05,22,00,19,14.10
2017,05,22,00,20,14.10
2017,05,22,00,21,14.10
2017,05,22,00,22,14.00
2017,05,22,00,23,14.00
2017,05,22,00,24,14.00
2017,05,22,00,25,14.00
2017,05,22,00,26,14.00
2017,05,22,00,27,14.00
2017,05,22,00,28,14.00
2017,05,22,00,29,14.00
2017,05,22,00,30,14.00
2017,05,22,00,31,13.90
2017,05,22,00,32,14.00
2017,05,22,00,33,13.90
2017,05,22,00,34,13.90
2017,05,22,00,35,13.90
2017,05,22,00,36,13.90
2017,05,22,00,37,13.90
2017,05,22,00,38,13.90
2017,05,22,00,39,13.90
2017,05,22,00,40,13.90
2017,05,22,00,41,13.90
2017,05,22,00,42,13.90
2017,05,22,00,43,13.90
2017,05,22,00,44,13.90
2017,05,22,00,45,13.90
2017,05,22,00,46,13.90
2017,05,22,00,47,13.90
2017,05,22,00,48,13.90
2017,05,22,00,49,13.90
2017,05,22,00,50,13.90
2017,05,22,00,51,13.90
2017,05,22,00,52,13.90
2017,05,22,00,53,13.90
2017,05,22,00,54,13.80
2017,05,22,00,55,13.80
2017,05,22,00,56,13.80
2017,05,22,00,57,13.80
2017,05,22,00,58,13.80
2017,05,22,00,59,13.80
2017,05,22,01,00,13.80
2017,05,22,01,01,13.80
2017,05,22,01,02,13.80
2017,05,22,01,03,13.80
2017,05,22,01,04,13.80
2017,05,22,01,05,13.80
2017,05,22,01,06,13.80
2017,05,22,01,07,13.80
2017,05,22,01,08,13.80
2017,05,22,01,09,13.80
2017,05,22,01,10,13.80
2017,05,22,01,11,13.80
2017,05,22,01,12,13.80
2017,05,22,01,13,13.80
2017,05,22,01,14,13.80
2017,05,22,01,15,13.80
2017,05,22,01,16,13.80
2017,05,22,01,17,13.80
2017,05,22,01,18,13.80
2017,05,22,01,19,13.80
2017,05,22,01,20,13.80
2017,05,22,01,21,13.80
2017,05,22,01,22,13.80
2017,05,22,01,23,13.80
2017,05,22,01,24,13.80
2017,05,22,01,25,13.80
2017,05,22,01,26,13.80
2017,05,22,01,27,13.80
2017,05,22,01,28,13.80
2017,05,22,01,29,13.80
2017,05,22,01,30,13.80
2017,05,22,01,31,13.90
2017,05,22,01,32,13.90
2017,05,22,01,33,13.90
2017,05,22,01,34,13.90
2017,05,22,01,35,13.90
2017,05,22,01,36,13.90
2017,05,22,01,37,13.90
2017,05,22,01,38,13.90
2017,05,22,01,39,13.90
2017,05,22,01,40,13.90
2017,05,22,01,41,13.90
2017,05,22,01,42,13.90
2017,05,22,01,43,13.90
2017,05,22,01,44,13.90
2017,05,22,01,45,13.90
2017,05,22,01,46,13.90
2017,05,22,01,47,13.80
2017,05,22,01,48,13.80
2017,05,22,01,49,13.80
2017,05,22,01,50,13.80
2017,05,22,01,51,13.80
2017,05,22,01,52,13.80
2017,05,22,01,53,13.80
2017,05,22,01,54,13.80
2017,05,22,01,55,13.80
2017,05,22,01,56,13.80
2017,05,22,01,57,13.80
2017,05,22,01,58,13.80
2017,05,22,01,59,13.80
2017,05,22,02,00,13.80
2017,05,22,02,01,13.80
2017,05,22,02,02,13.80
2017,05,22,02,03,13.70
2017,05,22,02,04,13.70
2017,05,22,02,05,13.70
2017,05,22,02,06,13.70
2017,05,22,02,07,13.70
2017,05,22,02,08,13.70
2017,05,22,02,09,13.70
2017,05,22,02,10,13.70
2017,05,22,02,11,13.70
2017,05,22,02,12,13.70
2017,05,22,02,13,13.60
2017,05,22,02,14,13.60
2017,05,22,02,15,13.60
2017,05,22,02,16,13.60
2017,05,22,02,17,13.60
2017,05,22,02,18,13.60
2017,05,22,02,19,13.50
2017,05,22,02,20,13.50
2017,05,22,02,21,13.40
2017,05,22,02,22,13.40
2017,05,22,02,23,13.40
2017,05,22,02,24,13.40
2017,05,22,02,25,13.40
2017,05,22,02,26,13.40
2017,05,22,02,27,13.30
2017,05,22,02,28,13.30
2017,05,22,02,29,13.30
2017,05,22,02,30,13.30
2017,05,22,02,31,13.30
2017,05,22,02,32,13.30
2017,05,22,02,33,13.30
2017,05,22,02,34,13.30
2017,05,22,02,35,13.30
2017,05,22,02,36,13.30
2017,05,22,02,37,13.30
2017,05,22,02,38,13.30
2017,05,22,02,39,13.30
2017,05,22,02,40,13.30
2017,05,22,02,41,13.30
2017,05,22,02,42,13.20
2017,05,22,02,43,13.20
2017,05,22,02,44,13.20
2017,05,22,02,45,13.20
2017,05,22,02,46,13.20
2017,05,22,02,47,13.20
2017,05,22,02,48,13.20
2017,05,22,02,49,13.30
2017,05,22,02,50,13.30
2017,05,22,02,51,13.30
2017,05,22,02,52,13.30
2017,05,22,02,53,13.30
2017,05,22,02,54,13.30
2017,05,22,02,55,13.30
2017,05,22,02,56,13.30
2017,05,22,02,57,13.30
2017,05,22,02,58,13.20
2017,05,22,02,59,13.20
2017,05,22,03,00,13.20
2017,05,22,03,01,13.20
2017,05,22,03,02,13.20
2017,05,22,03,03,13.20
2017,05,22,03,04,13.10
2017,05,22,03,05,13.10
2017,05,22,03,06,13.10
2017,05,22,03,07,13.10
2017,05,22,03,08,13.10
2017,05,22,03,09,13.10
2017,05,22,03,10,13.10
2017,05,22,03,11,13.10
2017,05,22,03,12,13.10
2017,05,22,03,13,13.10
2017,05,22,03,14,13.10
2017,05,22,03,15,13.10
2017,05,22,03,16,13.10
2017,05,22,03,17,13.10
2017,05,22,03,18,13.10
2017,05,22,03,19,13.10
2017,05,22,03,20,13.10
2017,05,22,03,21,13.10
2017,05,22,03,22,13.10
2017,05,22,03,23,13.10
2017,05,22,03,24,13.10
2017,05,22,03,25,13.10
2017,05,22,03,26,13.10
2017,05,22,03,27,13.20
2017,05,22,03,28,13.20
2017,05,22,03,29,13.20
2017,05,22,03,30,13.20
2017,05,22,03,31,13.20
2017,05,22,03,32,13.20
2017,05,22,03,33,13.20
2017,05,22,03,34,13.10
2017,05,22,03,35,13.10
2017,05,22,03,36,13.10
2017,05,22,03,37,13.20
2017,05,22,03,38,13.20
2017,05,22,03,39,13.20
2017,05,22,03,40,13.20
2017,05,22,03,41,13.20
2017,05,22,03,42,13.20
2017,05,22,03,43,13.20
2017,05,22,03,44,13.20
2017,05,22,03,45,13.20
2017,05,22,03,46,13.10
2017,05,22,03,47,13.10
2017,05,22,03,48,13.10
2017,05,22,03,49,13.10
2017,05,22,03,50,13.10
2017,05,22,03,51,13.10
2017,05,22,03,52,13.00
2017,05,22,03,53,13.00
2017,05,22,03,54,13.00
2017,05,22,03,55,13.00
2017,05,22,03,56,13.00
2017,05,22,03,57,13.00
2017,05,22,03,58,13.00
2017,05,22,03,59,13.00
2017,05,22,04,00,13.00
2017,05,22,04,01,13.00
2017,05,22,04,02,13.00
2017,05,22,04,03,13.00
2017,05,22,04,04,13.00
2017,05,22,04,08,13.00
2017,05,22,04,09,13.00
2017,05,22,04,10,13.00
2017,05,22,04,11,13.00
2017,05,22,04,12,13.00
2017,05,22,04,13,13.00
2017,05,22,04,14,13.00
2017,05,22,04,15,13.00
2017,05,22,04,16,13.00
2017,05,22,04,17,13.00
2017,05,22,04,18,13.00
2017,05,22,04,19,13.00
2017,05,22,04,20,13.10
2017,05,22,04,21,13.10
2017,05,22,04,22,13.10
2017,05,22,04,23,13.10
2017,05,22,04,24,13.00
2017,05,22,04,25,13.00
2017,05,22,04,26,13.00
2017,05,22,04,27,13.00
2017,05,22,04,28,12.90
2017,05,22,04,29,12.90
2017,05,22,04,30,13.00
2017,05,22,04,31,13.00
2017,05,22,04,32,13.00
2017,05,22,04,33,13.00
2017,05,22,04,34,13.10
2017,05,22,04,35,13.10
2017,05,22,04,36,13.10
2017,05,22,04,37,13.10
2017,05,22,04,38,13.10
2017,05,22,04,39,13.10
2017,05,22,04,40,13.10
2017,05,22,04,41,13.20
2017,05,22,04,42,13.20
2017,05,22,04,43,13.20
2017,05,22,04,44,13.30
2017,05,22,04,45,13.30
2017,05,22,04,46,13.30
2017,05,22,04,47,13.30
2017,05,22,04,48,13.30
2017,05,22,04,49,13.30
2017,05,22,04,50,13.30
2017,05,22,04,51,13.30
2017,05,22,04,52,13.30
2017,05,22,04,53,13.30
2017,05,22,04,54,13.30
2017,05,22,04,55,13.30
2017,05,22,04,56,13.30
2017,05,22,04,57,13.30
2017,05,22,04,58,13.30
2017,05,22,04,59,13.30
2017,05,22,05,00,13.30
2017,05,22,05,01,13.30
2017,05,22,05,02,13.30
2017,05,22,05,03,13.20
2017,05,22,05,04,13.20
2017,05,22,05,05,13.20
2017,05,22,05,06,13.20
2017,05,22,05,07,13.20
2017,05,22,05,08,13.20
2017,05,22,05,09,13.20
2017,05,22,05,10,13.20
2017,05,22,05,11,13.20
2017,05,22,05,12,13.20
2017,05,22,05,13,13.20
2017,05,22,05,14,13.10
2017,05,22,05,15,13.10
2017,05,22,05,16,13.20
2017,05,22,05,17,13.10
2017,05,22,05,18,13.20
2017,05,22,05,19,13.20
2017,05,22,05,20,13.20
2017,05,22,05,21,13.20
2017,05,22,05,22,13.30
2017,05,22,05,23,13.30
2017,05,22,05,24,13.30
2017,05,22,05,25,13.30
2017,05,22,05,26,13.30
2017,05,22,05,27,13.30
2017,05,22,05,28,13.30
2017,05,22,05,29,13.30
2017,05,22,05,30,13.30
2017,05,22,05,31,13.30
2017,05,22,05,32,13.30
2017,05,22,05,33,13.30
2017,05,22,05,34,13.30
2017,05,22,05,35,13.30
2017,05,22,05,36,13.30
2017,05,22,05,37,13.30
2017,05,22,05,38,13.30
2017,05,22,05,39,13.30
2017,05,22,05,40,13.30
2017,05,22,05,41,13.40
2017,05,22,05,42,13.40
2017,05,22,05,43,13.40
2017,05,22,05,44,13.50
2017,05,22,05,45,13.50
2017,05,22,05,46,13.50
2017,05,22,05,47,13.50
2017,05,22,05,48,13.50
2017,05,22,05,49,13.50
2017,05,22,05,50,13.50
2017,05,22,05,51,13.50
2017,05,22,05,52,13.40
2017,05,22,05,53,13.40
2017,05,22,05,54,13.50
2017,05,22,05,55,13.50
2017,05,22,05,56,13.60
2017,05,22,05,57,13.70
2017,05,22,05,58,13.80
2017,05,22,05,59,14.10
2017,05,22,06,00,14.40
2017,05,22,06,01,14.80
2017,05,22,06,02,15.10
2017,05,22,06,03,15.30
2017,05,22,06,04,15.60
2017,05,22,06,05,15.70
2017,05,22,06,06,15.90
2017,05,22,06,07,16.00
2017,05,22,06,08,16.20
2017,05,22,06,09,16.30
2017,05,22,06,10,16.40
2017,05,22,06,11,16.50
2017,05,22,06,12,16.60
2017,05,22,06,13,16.70
2017,05,22,06,14,16.80
2017,05,22,06,15,16.80
2017,05,22,06,16,16.80
2017,05,22,06,17,16.90
2017,05,22,06,18,16.90
2017,05,22,06,19,17.00
2017,05,22,06,20,17.00
2017,05,22,06,21,17.10
2017,05,22,06,22,17.10
2017,05,22,06,23,17.10
2017,05,22,06,24,17.10
2017,05,22,06,25,17.20
2017,05,22,06,26,17.20
2017,05,22,06,27,17.20
2017,05,22,06,28,17.20
2017,05,22,06,29,17.20
2017,05,22,06,30,17.30
2017,05,22,06,31,17.30
2017,05,22,06,32,17.30
2017,05,22,06,33,17.30
2017,05,22,06,34,17.30
2017,05,22,06,35,17.40
2017,05,22,06,36,17.40
2017,05,22,06,37,17.40
2017,05,22,06,38,17.40
2017,05,22,06,39,17.40
2017,05,22,06,40,17.50
2017,05,22,06,41,17.60
2017,05,22,06,42,17.60
2017,05,22,06,43,17.60
2017,05,22,06,44,17.60
2017,05,22,06,45,17.60
2017,05,22,06,46,17.60
2017,05,22,06,47,17.60
2017,05,22,06,48,17.60
2017,05,22,06,49,17.60
2017,05,22,06,50,17.60
2017,05,22,06,51,17.60
2017,05,22,06,52,17.60
2017,05,22,06,53,17.60
2017,05,22,06,54,17.60
2017,05,22,06,55,17.50
2017,05,22,06,56,17.50
2017,05,22,06,57,17.50
2017,05,22,06,58,17.50
2017,05,22,06,59,17.40
2017,05,22,07,00,17.40
2017,05,22,07,01,17.40
2017,05,22,07,02,17.40
2017,05,22,07,03,17.40
2017,05,22,07,04,17.40
2017,05,22,07,05,17.40
2017,05,22,07,06,17.40
2017,05,22,07,07,17.30
2017,05,22,07,08,17.30
2017,05,22,07,09,17.30
2017,05,22,07,10,17.30
2017,05,22,07,11,17.30
2017,05,22,07,12,17.30
2017,05,22,07,13,17.30
2017,05,22,07,14,17.30
2017,05,22,07,15,17.30
2017,05,22,07,16,17.30
2017,05,22,07,17,17.30
2017,05,22,07,18,17.30
2017,05,22,07,19,17.30
2017,05,22,07,20,17.30
2017,05,22,07,21,17.30
2017,05,22,07,22,17.30
2017,05,22,07,23,17.30
2017,05,22,07,24,17.30
2017,05,22,07,25,17.40
2017,05,22,07,26,17.40
2017,05,22,07,27,17.40
2017,05,22,07,28,17.40
2017,05,22,07,29,17.50
2017,05,22,07,30,17.50
2017,05,22,07,31,17.50
2017,05,22,07,32,17.60
2017,05,22,07,33,17.60
2017,05,22,07,34,17.60
2017,05,22,07,35,17.60
2017,05,22,07,36,17.60
2017,05,22,07,37,17.60
2017,05,22,07,38,17.70
2017,05,22,07,39,17.70
2017,05,22,07,40,17.70
2017,05,22,07,41,17.80
2017,05,22,07,42,17.80
2017,05,22,07,43,17.80
2017,05,22,07,44,17.90
2017,05,22,07,45,17.90
2017,05,22,07,46,17.90
2017,05,22,07,47,18.00
2017,05,22,07,48,18.00
2017,05,22,07,49,18.00
2017,05,22,07,50,18.10
2017,05,22,07,51,18.10
2017,05,22,07,52,18.10
2017,05,22,07,53,18.10
2017,05,22,07,54,18.10
2017,05,22,07,55,18.10
2017,05,22,07,56,18.10
2017,05,22,07,57,18.10
2017,05,22,07,58,18.10
2017,05,22,07,59,18.10
2017,05,22,08,00,18.10
2017,05,22,08,01,18.10
2017,05,22,08,02,18.10
2017,05,22,08,03,18.10
2017,05,22,08,04,18.10
2017,05,22,08,05,18.10
2017,05,22,08,06,18.20
2017,05,22,08,07,18.20
2017,05,22,08,08,18.20
2017,05,22,08,09,18.20
2017,05,22,08,10,18.20
2017,05,22,08,11,18.20
2017,05,22,08,12,18.30
2017,05,22,08,13,18.30
2017,05,22,08,14,18.30
2017,05,22,08,15,18.30
2017,05,22,08,16,18.30
2017,05,22,08,17,18.30
2017,05,22,08,18,18.40
2017,05,22,08,19,18.40
2017,05,22,08,20,18.40
2017,05,22,08,21,18.40
2017,05,22,08,22,18.40
2017,05,22,08,23,18.50
2017,05,22,08,24,18.50
2017,05,22,08,25,18.60
2017,05,22,08,26,18.60
2017,05,22,08,27,18.60
2017,05,22,08,28,18.70
2017,05,22,08,29,18.70
2017,05,22,08,30,18.70
2017,05,22,08,31,18.70
2017,05,22,08,32,18.80
2017,05,22,08,33,18.80
2017,05,22,08,34,18.80
2017,05,22,08,35,18.90
2017,05,22,08,36,18.90
2017,05,22,08,37,18.90
2017,05,22,08,38,18.90
2017,05,22,08,39,18.90
2017,05,22,08,40,18.90
2017,05,22,08,41,18.90
2017,05,22,08,42,18.90
2017,05,22,08,43,18.90
2017,05,22,08,44,19.00
2017,05,22,08,45,19.00
2017,05,22,08,46,19.10
2017,05,22,08,47,19.20
2017,05,22,08,48,19.30
2017,05,22,08,49,19.30
2017,05,22,08,50,19.40
2017,05,22,08,51,19.40
2017,05,22,08,52,19.40
2017,05,22,08,53,19.50
2017,05,22,08,54,19.50
2017,05,22,08,55,19.50
2017,05,22,08,56,19.60
2017,05,22,08,57,19.60
2017,05,22,08,58,19.60
2017,05,22,08,59,19.60
2017,05,22,09,00,19.60
2017,05,22,09,01,19.60
2017,05,22,09,02,19.60
2017,05,22,09,03,19.60
2017,05,22,09,04,19.70
2017,05,22,09,05,19.70
2017,05,22,09,06,19.70
2017,05,22,09,07,19.70
2017,05,22,09,08,19.80
2017,05,22,09,09,19.80
2017,05,22,09,10,19.80
2017,05,22,09,11,19.80
2017,05,22,09,12,19.80
2017,05,22,09,13,19.80
2017,05,22,09,14,19.80
2017,05,22,09,15,19.80
2017,05,22,09,16,19.80
2017,05,22,09,17,19.80
2017,05,22,09,18,19.80
2017,05,22,09,19,19.80
2017,05,22,09,20,19.80
2017,05,22,09,21,19.90
2017,05,22,09,22,19.90
2017,05,22,09,23,19.90
2017,05,22,09,24,20.00
2017,05,22,09,25,20.00
2017,05,22,09,26,20.10
2017,05,22,09,27,20.10
2017,05,22,09,28,20.10
2017,05,22,09,29,20.20
2017,05,22,09,30,20.20
2017,05,22,09,31,20.30
2017,05,22,09,32,20.30
2017,05,22,09,33,20.30
2017,05,22,09,34,20.40
2017,05,22,09,35,20.40
2017,05,22,09,36,20.40
2017,05,22,09,37,20.50
2017,05,22,09,38,20.50
2017,05,22,09,39,20.50
2017,05,22,09,40,20.40
2017,05,22,09,41,20.40
2017,05,22,09,42,20.40
2017,05,22,09,43,20.40
2017,05,22,09,44,20.40
2017,05,22,09,45,20.50
2017,05,22,09,46,20.60
2017,05,22,09,47,20.60
2017,05,22,09,48,20.70
2017,05,22,09,49,20.60
2017,05,22,09,50,20.60
2017,05,22,09,51,20.60
2017,05,22,09,52,20.60
2017,05,22,09,53,20.50
2017,05,22,09,54,20.40
2017,05,22,09,55,20.30
2017,05,22,09,56,20.30
2017,05,22,09,57,20.30
2017,05,22,09,58,20.20
2017,05,22,09,59,20.20
2017,05,22,10,00,20.20
2017,05,22,10,01,20.20
2017,05,22,10,02,20.10
2017,05,22,10,03,20.10
2017,05,22,10,04,20.10
2017,05,22,10,05,20.20
2017,05,22,10,06,20.20
2017,05,22,10,07,20.20
2017,05,22,10,08,20.20
2017,05,22,10,09,20.30
2017,05,22,10,10,20.30
2017,05,22,10,11,20.30
2017,05,22,10,12,20.30
2017,05,22,10,13,20.30
2017,05,22,10,14,20.40
2017,05,22,10,15,20.40
2017,05,22,10,16,20.50
2017,05,22,10,17,20.50
2017,05,22,10,18,20.60
2017,05,22,10,19,20.70
2017,05,22,10,20,20.80
2017,05,22,10,21,20.80
2017,05,22,10,22,20.90
2017,05,22,10,23,20.90
2017,05,22,10,24,21.00
2017,05,22,10,25,21.10
2017,05,22,10,26,21.20
2017,05,22,10,27,21.30
2017,05,22,10,28,21.30
2017,05,22,10,29,21.30
2017,05,22,10,30,21.30
2017,05,22,10,31,21.30
2017,05,22,10,32,21.20
2017,05,22,10,33,21.20
2017,05,22,10,34,21.10
2017,05,22,10,35,21.00
2017,05,22,10,36,21.00
2017,05,22,10,37,21.00
2017,05,22,10,38,21.10
2017,05,22,10,39,21.10
2017,05,22,10,40,21.10
2017,05,22,10,41,21.20
2017,05,22,10,42,21.20
2017,05,22,10,43,21.20
2017,05,22,10,44,21.20
2017,05,22,10,45,21.20
2017,05,22,10,46,21.20
2017,05,22,10,47,21.30
2017,05,22,10,48,21.30
2017,05,22,10,49,21.40
2017,05,22,10,50,21.40
2017,05,22,10,51,21.30
2017,05,22,10,52,21.30
2017,05,22,10,53,21.30
2017,05,22,10,54,21.30
2017,05,22,10,55,21.30
2017,05,22,10,56,21.30
2017,05,22,10,57,21.30
2017,05,22,10,58,21.40
2017,05,22,10,59,21.50
2017,05,22,11,00,21.60
2017,05,22,11,01,21.60
2017,05,22,11,02,21.70
2017,05,22,11,03,21.60
2017,05,22,11,04,21.50
2017,05,22,11,05,21.50
2017,05,22,11,06,21.40
2017,05,22,11,07,21.40
2017,05,22,11,08,21.40
2017,05,22,11,09,21.40
2017,05,22,11,10,21.50
2017,05,22,11,11,21.50
2017,05,22,11,12,21.50
2017,05,22,11,13,21.50
2017,05,22,11,14,21.60
2017,05,22,11,15,21.60
2017,05,22,11,16,21.60
2017,05,22,11,17,21.60
2017,05,22,11,18,21.60
2017,05,22,11,19,21.60
2017,05,22,11,20,21.60
2017,05,22,11,21,21.60
2017,05,22,11,22,21.60
2017,05,22,11,23,21.60
2017,05,22,11,24,21.60
2017,05,22,11,25,21.70
2017,05,22,11,26,21.70
2017,05,22,11,27,21.80
2017,05,22,11,28,21.80
2017,05,22,11,29,21.80
2017,05,22,11,30,21.80
2017,05,22,11,31,21.90
2017,05,22,11,32,21.90
2017,05,22,11,33,21.90
2017,05,22,11,34,22.00
2017,05,22,11,35,22.00
2017,05,22,11,36,22.10
2017,05,22,11,37,22.20
2017,05,22,11,38,22.20
2017,05,22,11,39,22.20
2017,05,22,11,40,22.20
2017,05,22,11,41,22.20
2017,05,22,11,42,22.20
2017,05,22,11,43,22.30
2017,05,22,11,44,22.30
2017,05,22,11,45,22.40
2017,05,22,11,46,22.40
2017,05,22,11,47,22.40
2017,05,22,11,48,22.40
2017,05,22,11,49,22.40
2017,05,22,11,50,22.50
2017,05,22,11,51,22.50
2017,05,22,11,52,22.60
2017,05,22,11,53,22.60
2017,05,22,11,54,22.70
2017,05,22,11,55,22.70
2017,05,22,11,56,22.70
2017,05,22,11,57,22.70
2017,05,22,11,58,22.70
2017,05,22,11,59,22.70
2017,05,22,12,00,22.70
2017,05,22,12,01,22.80
2017,05,22,12,02,22.90
2017,05,22,12,03,22.90
2017,05,22,12,04,22.90
2017,05,22,12,05,23.00
2017,05,22,12,06,23.00
2017,05,22,12,07,23.10
2017,05,22,12,08,23.00
2017,05,22,12,09,22.90
2017,05,22,12,10,22.70
2017,05,22,12,11,22.50
2017,05,22,12,12,22.30
2017,05,22,12,13,22.20
2017,05,22,12,14,22.00
2017,05,22,12,15,21.90
2017,05,22,12,16,21.80
2017,05,22,12,17,21.80
2017,05,22,12,18,21.80
2017,05,22,12,19,21.80
2017,05,22,12,20,21.70
2017,05,22,12,21,21.60
2017,05,22,12,22,21.60
2017,05,22,12,23,21.60
2017,05,22,12,24,21.70
2017,05,22,12,25,21.70
2017,05,22,12,26,21.80
2017,05,22,12,27,21.80
2017,05,22,12,28,21.90
2017,05,22,12,29,21.90
2017,05,22,12,30,21.90
2017,05,22,12,31,22.00
2017,05,22,12,32,22.10
2017,05,22,12,33,22.20
2017,05,22,12,34,22.30
2017,05,22,12,35,22.40
2017,05,22,12,36,22.40
2017,05,22,12,37,22.60
2017,05,22,12,38,22.70
2017,05,22,12,39,22.80
2017,05,22,12,40,23.00
2017,05,22,12,41,23.00
2017,05,22,12,42,23.10
2017,05,22,12,43,23.20
2017,05,22,12,44,23.20
2017,05,22,12,45,23.30
2017,05,22,12,46,23.30
2017,05,22,12,47,23.40
2017,05,22,12,48,23.50
2017,05,22,12,49,23.60
2017,05,22,12,50,23.70
2017,05,22,12,51,23.80
2017,05,22,12,52,23.90
2017,05,22,12,53,24.00
2017,05,22,12,54,24.00
2017,05,22,12,55,24.00
2017,05,22,12,56,23.90
2017,05,22,12,57,23.90
2017,05,22,12,58,23.80
2017,05,22,12,59,23.80
2017,05,22,13,00,23.70
2017,05,22,13,01,23.60
2017,05,22,13,02,23.50
2017,05,22,13,03,23.40
2017,05,22,13,04,23.40
2017,05,22,13,05,23.40
2017,05,22,13,06,23.40
2017,05,22,13,07,23.40
2017,05,22,13,08,23.30
2017,05,22,13,09,23.20
2017,05,22,13,10,23.00
2017,05,22,13,11,22.80
2017,05,22,13,12,22.60
2017,05,22,13,13,22.50
2017,05,22,13,14,22.40
2017,05,22,13,15,22.30
2017,05,22,13,16,22.30
2017,05,22,13,17,22.30
2017,05,22,13,18,22.50
2017,05,22,13,19,22.60
2017,05,22,13,20,22.70
2017,05,22,13,21,22.80
2017,05,22,13,22,23.00
2017,05,22,13,23,23.10
2017,05,22,13,24,23.20
2017,05,22,13,25,23.20
2017,05,22,13,26,23.10
2017,05,22,13,27,23.00
2017,05,22,13,28,22.90
2017,05,22,13,29,22.90
2017,05,22,13,30,22.90
2017,05,22,13,31,23.00
2017,05,22,13,32,23.00
2017,05,22,13,33,23.10
2017,05,22,13,34,23.20
2017,05,22,13,35,23.20
2017,05,22,13,36,23.30
2017,05,22,13,37,23.30
2017,05,22,13,38,23.30
2017,05,22,13,39,23.40
2017,05,22,13,40,23.50
2017,05,22,13,41,23.50
2017,05,22,13,42,23.60
2017,05,22,13,43,23.70
2017,05,22,13,44,23.80
2017,05,22,13,45,23.80
2017,05,22,13,46,23.80
2017,05,22,13,47,23.70
2017,05,22,13,48,23.80
2017,05,22,13,49,23.80
2017,05,22,13,50,23.80
2017,05,22,13,51,23.90
2017,05,22,13,52,24.00
2017,05,22,13,53,24.10
2017,05,22,13,54,24.20
2017,05,22,13,55,24.20
2017,05,22,13,56,24.20
2017,05,22,13,57,24.20
2017,05,22,13,58,24.20
2017,05,22,13,59,24.20
2017,05,22,14,00,24.20
2017,05,22,14,01,24.20
2017,05,22,14,02,24.20
2017,05,22,14,03,24.20
2017,05,22,14,04,24.20
2017,05,22,14,05,24.30
2017,05,22,14,06,24.40
2017,05,22,14,07,24.50
2017,05,22,14,08,24.50
2017,05,22,14,09,24.60
2017,05,22,14,10,24.60
2017,05,22,14,11,24.70
2017,05,22,14,12,24.70
2017,05,22,14,13,24.70
2017,05,22,14,14,24.70
2017,05,22,14,15,24.70
2017,05,22,14,16,24.80
2017,05,22,14,17,24.90
2017,05,22,14,18,24.90
2017,05,22,14,19,24.90
2017,05,22,14,20,24.90
2017,05,22,14,21,24.90
2017,05,22,14,22,24.80
2017,05,22,14,23,24.80
2017,05,22,14,24,24.80
2017,05,22,14,25,24.90
2017,05,22,14,26,25.00
2017,05,22,14,27,25.00
2017,05,22,14,28,25.10
2017,05,22,14,29,25.00
2017,05,22,14,30,24.90
2017,05,22,14,31,24.80
2017,05,22,14,32,24.80
2017,05,22,14,33,24.80
2017,05,22,14,34,24.70
2017,05,22,14,35,24.70
2017,05,22,14,36,24.80
2017,05,22,14,37,24.80
2017,05,22,14,38,24.80
2017,05,22,14,39,24.80
2017,05,22,14,40,24.80
2017,05,22,14,41,24.80
2017,05,22,14,42,24.80
2017,05,22,14,43,24.80
2017,05,22,14,44,24.80
2017,05,22,14,45,24.90
2017,05,22,14,46,24.90
2017,05,22,14,47,25.00
2017,05,22,14,48,25.10
2017,05,22,14,49,25.20
2017,05,22,14,50,25.20
2017,05,22,14,51,25.30
2017,05,22,14,52,25.20
2017,05,22,14,53,25.10
2017,05,22,14,54,24.90
2017,05,22,14,55,24.80
2017,05,22,14,56,24.80
2017,05,22,14,57,24.70
2017,05,22,14,58,24.70
2017,05,22,14,59,24.70
2017,05,22,15,00,24.80
2017,05,22,15,01,24.80
2017,05,22,15,02,24.90
2017,05,22,15,03,24.90
2017,05,22,15,04,25.00
2017,05,22,15,05,25.00
2017,05,22,15,06,24.90
2017,05,22,15,07,24.90
2017,05,22,15,08,24.80
2017,05,22,15,09,24.80
2017,05,22,15,10,24.70
2017,05,22,15,11,24.80
2017,05,22,15,12,24.80
2017,05,22,15,13,24.90
2017,05,22,15,14,24.90
2017,05,22,15,15,24.90
2017,05,22,15,16,25.00
2017,05,22,15,17,25.10
2017,05,22,15,18,25.10
2017,05,22,15,19,25.20
2017,05,22,15,20,25.30
2017,05,22,15,21,25.40
2017,05,22,15,22,25.60
2017,05,22,15,23,25.70
2017,05,22,15,24,25.80
2017,05,22,15,25,25.80
2017,05,22,15,26,25.80
2017,05,22,15,27,25.80
2017,05,22,15,28,25.80
2017,05,22,15,29,25.80
2017,05,22,15,30,25.70
2017,05,22,15,31,25.60
2017,05,22,15,32,25.50
2017,05,22,15,33,25.50
2017,05,22,15,34,25.50
2017,05,22,15,35,25.60
2017,05,22,15,36,25.60
2017,05,22,15,37,25.60
2017,05,22,15,38,25.60
2017,05,22,15,39,25.70
2017,05,22,15,40,25.70
2017,05,22,15,41,25.60
2017,05,22,15,42,25.60
2017,05,22,15,43,25.60
2017,05,22,15,44,25.60
2017,05,22,15,45,25.60
2017,05,22,15,46,25.60
2017,05,22,15,47,25.60
2017,05,22,15,48,25.70
2017,05,22,15,49,25.70
2017,05,22,15,50,25.80
2017,05,22,15,51,25.80
2017,05,22,15,52,25.80
2017,05,22,15,53,25.90
2017,05,22,15,54,25.90
2017,05,22,15,55,25.90
2017,05,22,15,56,25.90
2017,05,22,15,57,26.00
2017,05,22,15,58,26.00
2017,05,22,15,59,26.10
2017,05,22,16,00,26.10
2017,05,22,16,01,26.10
2017,05,22,16,02,26.10
2017,05,22,16,03,26.00
2017,05,22,16,04,26.00
2017,05,22,16,05,26.00
2017,05,22,16,06,26.00
2017,05,22,16,07,26.00
2017,05,22,16,08,26.00
2017,05,22,16,09,26.00
2017,05,22,16,10,26.10
2017,05,22,16,11,26.10
2017,05,22,16,12,26.10
2017,05,22,16,13,26.20
2017,05,22,16,14,26.20
2017,05,22,16,15,26.30
2017,05,22,16,16,26.30
2017,05,22,16,17,26.40
2017,05,22,16,18,26.40
2017,05,22,16,19,26.50
2017,05,22,16,20,26.50
2017,05,22,16,21,26.50
2017,05,22,16,22,26.40
2017,05,22,16,23,26.40
2017,05,22,16,24,26.40
2017,05,22,16,25,26.30
2017,05,22,16,26,26.20
2017,05,22,16,27,26.10
2017,05,22,16,28,26.10
2017,05,22,16,29,26.10
2017,05,22,16,30,26.10
2017,05,22,16,31,26.20
2017,05,22,16,32,26.20
2017,05,22,16,33,26.30
2017,05,22,16,34,26.30
2017,05,22,16,35,26.30
2017,05,22,16,36,26.30
2017,05,22,16,37,26.30
2017,05,22,16,38,26.40
2017,05,22,16,39,26.50
2017,05,22,16,40,26.60
2017,05,22,16,41,26.70
2017,05,22,16,42,26.80
2017,05,22,16,43,26.80
2017,05,22,16,44,26.90
2017,05,22,16,45,26.90
2017,05,22,16,46,26.90
2017,05,22,16,47,26.90
2017,05,22,16,48,27.00
2017,05,22,16,49,27.00
2017,05,22,16,50,26.90
2017,05,22,16,51,26.90
2017,05,22,16,52,27.00
2017,05,22,16,53,26.90
2017,05,22,16,54,27.00
2017,05,22,16,55,27.00
2017,05,22,16,56,27.00
2017,05,22,16,57,27.00
2017,05,22,16,58,26.90
2017,05,22,16,59,26.80
2017,05,22,17,00,26.60
2017,05,22,17,01,26.50
2017,05,22,17,02,26.30
2017,05,22,17,03,26.20
2017,05,22,17,04,26.10
2017,05,22,17,05,26.00
2017,05,22,17,06,26.00
2017,05,22,17,07,26.00
2017,05,22,17,08,26.10
2017,05,22,17,09,26.10
2017,05,22,17,10,26.00
2017,05,22,17,11,25.90
2017,05,22,17,12,25.80
2017,05,22,17,13,25.80
2017,05,22,17,14,25.70
2017,05,22,17,15,25.70
2017,05,22,17,16,25.70
2017,05,22,17,17,25.70
2017,05,22,17,18,25.80
2017,05,22,17,19,25.90
2017,05,22,17,20,25.90
2017,05,22,17,21,25.90
2017,05,22,17,22,25.90